Retour au catalogue

DELTA 1 DEB

ActifSSO
NORAD 7489·DEBRIS·🇺🇸 United States

Lancé Nov 6, 1973 depuis Vandenberg Space Force Base

Loading…

Prochains Passages (prochaines 24 heures)

TLE

FraisSource: Space-Track

Époque: Sep 14, 2026, 00:42 UTC

1 07489U 73086FV  26257.02950012 -.00000021  00000-0  21385-3 0  9999
2 07489 102.5293 280.2487 0060996 174.3261 214.8981 12.29743468370242

Suivez DELTA 1 DEB en temps réel avec AllMySat

Download on the App Store